Torna al catalogo

STARLINK-2428

AttivoComunicazioniVLEO
NORAD 48099·PAYLOAD·🇺🇸 United States

Lanciato Apr 7, 2021 da Cape Canaveral Space Force Station

Loading…

Prossimi Passaggi (prossime 24 ore)

TLE

AggiornatoSource: CelesTrak SupGP

Epoca: Sep 14, 2026, 21:13 UTC

1 48099C 21027H   26257.88451389 -.00015147  00000+0 -48714-3 0  2573
2 48099  53.1607   7.3246 0001606  73.6603 223.6458 15.31704766    15

Traccia STARLINK-2428 in tempo reale con AllMySat

Download on the App Store